Regional Weather Roundup
Issued by NWS

Home | Current Version | Previous Version | Text Only | Print | Product List | Glossary On
Versions: 1 2 3 4 5 6 7 8 9 10 11 12 13 14 15 16 17 18 19 20 21 22 23 24 25 26 27 28 29 30 31 32 33 34 35 36 37 38 39 40 41 42 43 44 45 46 47 48 49 50
000
ASUS46 KLOX 012313
RWRCA

SOUTHERN CALIFORNIA WEATHER ROUNDUP
NATIONAL WEATHER SERVICE OXNARD CALIFORNIA
400 PM PDT WED JUL 01 2015

NOTE: "FAIR" INDICATES FEW OR NO CLOUDS BELOW 12,000 FEET WITH NO
SIGNIFICANT WEATHER AND/OR OBSTRUCTIONS TO VISIBILITY.

  -  STATIONS PRECEEDED BY AN ASTERISK (*) ARE NOT NWS OR FAA
     STATIONS AND ARE NOT SUBJECT TO NWS AND FAA QUALITY CONTROL.

CAZ041-042-087-020000-
LA AND ORANGE COUNTY COASTAL AREAS


CITY           SKY/WX    TMP DP  RH WIND       PRES   REMARKS
L.A. DOWNTOWN  CLOUDY    78  61  55 VRB6      29.89F
L.A. AIRPORT   PTSUNNY   73  63  70 W12       29.90F
LONG BEACH     PTSUNNY   84  58  40 S6        29.88F

CITY           SKY/WX    TMP DP  RH WIND       PRES   REMARKS
AVALON           N/A     72 N/A N/A N2          N/A
FULLERTON      CLOUDY    84  62  47 SW7       29.87F
*GETTY CENTER    N/A     79  54  41 SW9         N/A
HAWTHORNE      PTSUNNY   77  62  59 W12       29.90F
*LOS ALAMITOS  PTSUNNY   80  62  55 S7        29.88F
*REDONDO BEACH   N/A     74  65  74 W10       29.90F
SANTA ANA      PTSUNNY   77  63  61 SW10      29.89F
STA MONICA APT CLOUDY    74  60  61 VRB7      29.90F
TORRANCE       PTSUNNY   77  66  69 NW13      29.89F
*UCLA            N/A     75  55  50 SW6       29.87F

$$

CAZ547-548-048-020000-
LA COUNTY VALLEYS AND INLAND EMPIRE


CITY           SKY/WX    TMP DP  RH WIND       PRES   REMARKS
BURBANK        CLOUDY    86  53  32 S9        29.89F
VAN NUYS       CLOUDY    91  49  23 SE10      29.88F

CITY           SKY/WX    TMP DP  RH WIND       PRES   REMARKS
CORONA AIRPORT CLOUDY    85  63  47 W13G18    29.87F
*CHATSWORTH      N/A     93  58  30 W3        29.84F HX  91
CHINO          CLOUDY    90  58  33 W15       29.89F
MARCH AFB      CLOUDY    89  57  33 NW10      29.91F
*NORTHRIDGE      N/A     91  36  14 E3G12       N/A
ONTARIO        CLOUDY    89  57  33 W13       29.88F
*PASADENA        N/A     84  59  42 E5          N/A
POMONA         SUNNY     86  57  37 SW12      29.93F
RIVERSIDE      CLOUDY    90  60  36 W12       29.88F
SAN BERNARDINO PTSUNNY   90  46  22 W14       29.89F
*SAN GABRIEL     N/A     83  59  43 S6        29.94F
*WHITEMAN AP   NOT AVBL
*WOODLAND HILL   N/A     93  45  18 S8          N/A

$$

CAZ054-055-020000-
LA AND SAN BERNARDINO COUNTY MOUNTAINS


CITY           SKY/WX    TMP DP  RH WIND       PRES   REMARKS
*BIG BEAR AIRP CLOUDY    68  52  56 W6        30.27R
SANDBERG       CLOUDY    82  55  39 CALM      30.13F

$$

CAZ028-029-059-060-099-020000-
ANTELOPE VALLEY AND SURROUNDING AREAS


CITY           SKY/WX    TMP DP  RH WIND       PRES   REMARKS
LANCASTER      CLOUDY    89  60  37 CALM      29.99F
PALMDALE       CLOUDY    87  59  38 NE5       30.00F

CITY           SKY/WX    TMP DP  RH WIND       PRES   REMARKS
29 PALMS       PTSUNNY   85  62  46 VRB3      30.00F
BARSTOW/DAGGET PTSUNNY   90  59  35 W9        29.90F
BISHOP         MOSUNNY   92  53  26 VRB3      30.04F
CHINA LAKE     MOSUNNY   91  60  35 NW8       29.97F HX  90
EDWARDS AFB    PTSUNNY   88  59  38 N3        29.96F
MOJAVE         FAIR      86  55  35 NE6       30.01F
NEEDLES        CLOUDY   101  53  20 SW18G29   29.79F HX  99
VICTORVILLE    CLOUDY    82  59  44 W8G23     29.95F

$$

CAZ039-040-020000-
VENTURA AND SANTA BARBARA COUNTY COAST


CITY           SKY/WX    TMP DP  RH WIND       PRES   REMARKS
CAMARILLO      CLOUDY    74  60  61 SW9       29.89F
NWS OXNARD       N/A     72  62  70 CALM      29.89F
OXNARD AIRPORT CLOUDY    70  61  73 W10       29.90F
*POINT MUGU    CLOUDY    73  62  68 W9        29.90F
SBA APT/GOLETA CLOUDY    72  60  66 W9        29.89F
*SANTA BARBARA   N/A     77  59  53 NE5       29.95F
*VENTURA         N/A     76  61  59 SW6       29.50S

$$

CAZ044-045-020000-
VENTURA COUNTY VALLEYS


CITY           SKY/WX    TMP DP  RH WIND       PRES   REMARKS
*SIMI VALLEY     N/A     84  58  40 W1        29.83F
*OJAI            N/A     92  54  27 W3        29.80F
*FILLMORE        N/A     85  55  35 SW2       29.78F

$$

CAZ053-020000-
VENTURA COUNTY MOUNTAINS


CITY           SKY/WX    TMP DP  RH WIND       PRES   REMARKS

$$

CAZ034-035-036-020000-
CENTRAL COAST AND SANTA YNEZ VALLEY


CITY           SKY/WX    TMP DP  RH WIND       PRES   REMARKS
SAN LUIS OBISP PTSUNNY   82  55  39 W8        29.90F
SANTA MARIA    PTSUNNY   78  59  51 NW9       29.91F

CITY           SKY/WX    TMP DP  RH WIND       PRES   REMARKS
*CAL POLY SLO    N/A     79  59  50 W3          N/A
*LOMPOC        CLOUDY    68  55  64 W9        29.92F
*PISMO BEACH     N/A     63  59  86 SW9       29.92F
*SANTA YNEZ    FAIR      86  50  28 W12       29.90S

$$

CAZ037-038-051-020000-
SAN LUIS OBISPO COUNTY INTERIOR AND CUYAMA VALLEY


CITY           SKY/WX    TMP DP  RH WIND       PRES   REMARKS
*CUYAMA          N/A     90  61  38 NE3       29.77F HX  90
PASO ROBLES    PTSUNNY   93  47  20 S9        29.88F

$$

CAZ032-033-061-020000-
SOUTHERN DESERTS


CITY           SKY/WX    TMP DP  RH WIND       PRES   REMARKS
BLYTHE         PTSUNNY   98  64  32 SE10      29.81F HX 100
IMPERIAL       CLOUDY    93  67  42 S13       29.81F HX  96
PALM SPRINGS   PTSUNNY   98  63  31 CALM      29.85F HX 100
THERMAL        PTSUNNY   97  68  38 SE12      29.79F HX 102

$$

ELSEWHERE ACROSS THE WESTERN UNITED STATES AND MEXICO


CITY           SKY/WX    TMP DP  RH WIND       PRES   REMARKS
DENVER, CO     TSTM      73  60  63 SW10      30.16R
GRAND CANYON,  CLOUDY    76  52  43 SW13      30.19S
HONOLULU, HI   MOSUNNY   84  70  61 S9        29.89F
KAHULUI, MAUI  MOSUNNY   90  70  51 N10       29.89F HX  95
LAKE TAHOE, CA MOSUNNY   82  51  34 S9        30.26S
LAS VEGAS, NV  MOSUNNY  106  55  18 SW20G29   29.77F HX 105
MAMMOTH LAKES, FAIR      84  46  26 E10G17    30.30F
MEXICO CITY, M TSTM      59  52  77 N16       30.26
PHOENIX, AZ    PTSUNNY  104  57  21 W16G28    29.79F HX 103
PORTLAND, OR   SUNNY     92  56  29 NW10      29.88F HX  90
RENO, NV       PTSUNNY  100  53  20 W15G25    30.04F HX  98
SALT LAKE CITY PTSUNNY   97  49  19 N8G18     30.01F HX  94
SAN DIEGO, CA  CLOUDY    76  65  68 S9        29.92F
SAN FRANCISCO, PTSUNNY   70  56  61 NW16      29.91S
SAN JOSE, CA   PTSUNNY   81  59  47 NW14      29.89S
SEATTLE, WA    SUNNY     88  55  32 N12       29.98F
TIJUANA, MEX   CLOUDY    77  63  61 W6        29.94S

$$

STATION/POSITION TIME  TEMP    WIND        PRES    VSBY  WAVE
                       AIR SEA DIR/SP/G                  HT/PER
                 (UTC) (F)     (DEG/KT/KT) (MB)    (MI)  (FT/S)
POINT ARGUELLO B NOT AVBL
WEST SANTA BARBA 2250   59 59  290/ 10/ 12 1012.4F         4/ 8
POINT CONCEPTION NOT AVBL
EAST SANTA BARBA 2300   62 63  270/ 12/ 14 1012.9F
SANTA MONICA BAY 2250   66 67  240/ 10/ 10 1012.8F         2/15



USA.gov is the U.S. government's official web portal to all federal, state and local government web resources and services.